Regional Weather Roundup
Issued by NWS

Current Version | Previous Version | Graphics & Text | Print | Product List | Glossary On
Versions: 1 2 3 4 5 6 7 8 9 10 11 12 13 14 15 16 17 18 19 20 21 22 23 24 25 26 27 28 29 30 31 32 33 34 35 36 37 38 39 40 41 42 43 44 45 46 47 48 49 50
000
ASHW40 PHFO 171343
RWRHI

WEATHER ROUNDUP FOR HAWAII
NATIONAL WEATHER SERVICE HONOLULU HI
300 AM HST TUE OCT 17 2017

THIS IS AN AUTOMATED REPORT THAT HAS NOT BEEN QUALITY CONTROLLED.

NOTE..."FAIR" INDICATES FEW OR NO CLOUDS BELOW 12,000 FEET WITH NO
SIGNIFICANT WEATHER AND/OR OBSTRUCTIONS TO VISIBILITY.

* - THESE SITES REPORT LIMITED FIELDS
# - BUOY DATA PROVIDED BY PACIFIC ISLANDS OCEAN OBSERVING SYSTEM.

HIZ001>004-171400-
KAUAI-NIIHAU-

CITY           SKY/WX    TMP DP  RH WIND       PRES   REMARKS
LIHUE APT      MOCLDY    78  67  68 NE16      30.07F
PORT ALLEN*      N/A     77 N/A N/A NE17G25     N/A
POIPU*           N/A     77 N/A N/A NE10G22     N/A
PRINCEVILLE*     N/A     75 N/A N/A E7G13       N/A
KOKOLE POINT*  NOT AVBL
MOLOAA DAIRY*    N/A     75  68  78 E3G14       N/A
WAIMEA HTS*      N/A     75  61  60 E7G13       N/A
PUU OPAE*        N/A     66  55  68 N3G10       N/A
PUU LUA*       NOT AVBL
MAKAHA RIDGE*    N/A     70  59  68 NE3G14      N/A
$$

HIZ005>011-171400-
OAHU-

CITY           SKY/WX    TMP DP  RH WIND       PRES   REMARKS
HONOLULU       PTCLDY    77  63  61 NE17G26   30.02S
KALAELOA       PTCLDY    77  63  61 E8G16     30.03F
KANEOHE MCB    MOCLDY    78  68  71 E14G24    30.02F
WHEELER FIELD  FAIR      71  65  79 NE10      30.03F
BELLOWS*         N/A    N/A N/A N/A NE24G32     N/A
KAHUKU*          N/A    N/A N/A N/A NE10G20     N/A
WHEELER*         N/A    N/A N/A N/A NE5         N/A
WAIANAE HARBOR   N/A    N/A N/A N/A NE10G22     N/A
DILLINGHAM*      N/A     73  64  73 NW2         N/A
KAHUKU TRN*      N/A     75  64  69 W13G26      N/A
KAWAILOA*        N/A     72  64  78 E15G24      N/A
KII*             N/A     79  66  65 E22G30      N/A
MAKUA RANGE*     N/A     75  61  60 SW3G23      N/A
OAHU FOREST NW   N/A    N/A N/A N/A E18G41      N/A
SCHOFIELD BRK*   N/A     72  63  73 MISG        N/A
SCHOFIELD S*   NOT AVBL
WAIANAE VLY*     N/A     82  72  69 S7G17       N/A
KUAOKALA*        N/A     72  63  73 NE18G25     N/A
HONOULIUULI*   NOT AVBL
MOKUOLOE IS*   NOT AVBL
PALEHUA*         N/A     64  61  88 NE15G35     N/A
WAIAWA PHB*    NOT AVBL
$$

HIZ012>013-171400-
MOLOKAI-

CITY           SKY/WX    TMP DP  RH WIND       PRES   REMARKS
MOLOKAI AIRPT  PTCLDY    75  64  68 NE12G22   30.05S
KALAUPAPA      NOT AVBL
MAKAPULAPAI*     N/A     77  66  69 E25G33      N/A
MOLOKAI 1*       N/A     63  55  77 E3G20       N/A
PUU ALII*        N/A     57  57  99 N3G18       N/A
$$

HIZ016-171400-
KAHOOLAWE-

CITY           SKY/WX    TMP DP  RH WIND       PRES   REMARKS
KAHOOLAWE*     NOT AVBL
HAKIOAWA*        N/A     72  64  76 MISG      30.42R
HONOKANAIA*      N/A     76  63  63 N8G35     29.95F
KANELOA*         N/A     75  64  69 E15G37    30.08S
KEALIALALO*    NOT AVBL
LUA MAKIKA*    NOT AVBL
$$

HIZ014>015-171400-
LANAI-

CITY           SKY/WX    TMP DP  RH WIND       PRES   REMARKS
LANAI CITY     FAIR      70  62  76 NE33G40   30.02F
LANAI 1*         N/A     72  63  73 NE18G30     N/A
$$

HIZ017>028-171400-
MAUI-

CITY           SKY/WX    TMP DP  RH WIND       PRES   REMARKS
KAHULUI        MOCLDY    74  67  78 NE10      30.03F
KAPALUA-W MAUI NOT AVBL
HANA AIRPORT   NOT AVBL
HANA*            N/A     75 N/A N/A SE3G9       N/A
HALEAKALA SUMM   N/A     43  14  31 NE26G44     N/A
MAALAEA BAY*     N/A     73 N/A N/A N18G28      N/A
HALEAKALA*     NOT AVBL
KAUPO GAP*     NOT AVBL
KULA 1*          N/A     46  37  71 NE5         N/A
$$

HIZ023>026-171400-
BIG ISLAND OF HAWAII COAST AND LOWER SLOPES-

CITY           SKY/WX    TMP DP  RH WIND       PRES   REMARKS
KAILUA KONA    PTCLDY    78  56  46 NW7       29.92F
HILO           LGT RAIN  71  68  90 CALM      30.02F
HONOKAA*         N/A     66 N/A N/A VRB1        N/A
KAWAIHAE MWT*    N/A     77 N/A N/A E21G35      N/A
KAWAIHAE*        N/A     81 N/A N/A E15       29.93F
SOUTH POINT*     N/A     72 N/A N/A VRB22G32    N/A
UPOLU AIRPORT* NOT AVBL
KAMUELA*       NOT AVBL
HAKALAU*         N/A     48  48 100 VRB3G9      N/A
KALOKO-HONOKO*   N/A     73  66  78 E6        29.91F
PALI 2*          N/A     63  57  82 S23G33      N/A
KEALAKOMO*       N/A     72  64  78 N14G28      N/A
KAUPULEHU*       N/A     72  55  56 NE9G23      N/A
KAPAPALA*        N/A     69  57  65 NE8G24      N/A
LOWER KAHUKU*    N/A    N/A N/A N/A N2G10       N/A
PUHE CS*         N/A     75  55  50 E16G37      N/A
PUHO CS*         N/A     71  32  23 E3          N/A
PTA KEAMUKU*     N/A     61  50  67 E24G37      N/A
WAIKOLOA*        N/A     72  59  64 E23G35      N/A
$$

HIZ027>028-171400-
BIG ISLAND OF HAWAII INTERIOR AND SUMMMITS-

CITY           SKY/WX    TMP DP  RH WIND       PRES   REMARKS
BRADSHAW FIELD PTCLDY    43  34  69 CALM      30.27F
MK VISITOR CEN   N/A     54 -17   5 N10         N/A
MAUNA KEA*       N/A     37 -18   8 NE26        N/A  WCI  26
MAUNA LOA*       N/A     43 -40   2 MISG        N/A
MAUNA LOA 1*   NOT AVBL
PTA KIPUKA*      N/A     73  70  88 NE7G15      N/A
PTA RANGE 17*    N/A     54  50  87 NW15G28     N/A
PTA WEST*        N/A     57  48  72 E8G21       N/A
NENE CABIN*      N/A     45  39  81 N5          N/A
AHUMOA*          N/A     48  43  81 NE2G9       N/A
PTA PORTABLE*  NOT AVBL
PUU MALI*        N/A     50  50 100 E21G31      N/A
$$

HIC003-171400-
NORTHWEST ISLANDS-

CITY           SKY/WX    TMP DP  RH WIND       PRES   REMARKS
MIDWAY ISLAND  CLOUDY    79  73  83 E15       30.18F
MIDWAY NOS*      N/A     79 N/A N/A MISG      30.17S
FRENCH FRIGATE NOT AVBL
$$

PHZ110>124-180-171400-
BUOY REPORTS

STATION/POSITION TIME  TEMP    WIND        PRES    WAVE   SWELL
                       AIR SEA DIR/SP/G            HT/PER HT/DIR
                 (UTC) (F)     (DEG/KT/KT) (MB)    (FT/S) (FT/D)
BUOY 51001       1330   77 81   60/ 16/ 23 1019.7F
BUOY 51101       1250   76 81   60/ 21/ 25 1020.1F  11/10   7/ 80
BUOY 51100       NOT AVBL
BUOY 51002       1330   80 80   70/ 23/ 29 1012.6S
BUOY 51003       1250   78 82   80/ 21/ 29 1013.9F  12/ 9   8/ 80
BUOY 51004       1330   78 81   60/ 17/ 23 1013.2F
WAIMEA BAY#      1302      78                N/A     7/ 8   3/ 20
MOKAPU POINT#    1304      80                N/A    10/ 9   3/ 60
LANAI#           NOT AVBL
BARBERS PT 2#    NOT AVBL
PAUWELA#         NOT AVBL
HILO#            1327      80                N/A    10/10   3/330
KANEOHE BAY#     NOT AVBL
KANEOHE BAY 2#   NOT AVBL
HANALEI#         1322      81                N/A    10/10   3/ 20
KAHULUI HARBOR   1312   77 79   60/ 11/ 17 1016.9
HONOLULU HARBOR  1312   77 80   70/  9/ 15 1017.3
PEARL HARBOR#    1300      80                N/A     4/15   3/160
KILO NALU        NOT AVBL
HILO HARBOR      NOT AVBL
MOKUOLOE         1236   79 80   70/ 17/ 21 1017.5F
NAWILIWILI       1312   78 81   60/ 12/ 20 1017.7
WHOTS BUOY       NOT AVBL
BUOY 51028       NOT AVBL
$$

......................KEY........................................
  SKY/WX - SKY CONDITIONS/PRESENT WEATHER
  TMP    - TEMPERATURE IN FAHRENHEIT
  DWPT   - DEWPOINT IN FAHRENHEIT
  RH     - RELATIVE HUMIDITY IN PERCENT
  WIND   - DIRECTION AND SPEED /MPH FOR ISLANDS...KTS FOR BUOYS/
  PRES   - MEAN SEA LEVEL PRESSURE IN INCHES OF HG
  VSB    - VISIBILITY IN MILES
  HX     - HEAT INDEX
  WCI    - WIND CHILL INDEX
  VRB    - VARIABLE WIND DIRECTION
  N/A    - NOT AVAILABLE




USA.gov is the U.S. government's official web portal to all federal, state and local government web resources and services.